Regional Weather Roundup
Issued by NWS New Orleans/Baton Rouge, LA

Home | Current Version | Previous Version | Text Only | Print | Product List | Glossary On
Versions: 1 2 3 4 5 6 7 8 9 10 11 12 13 14 15 16 17 18 19 20 21 22 23 24 25 26 27
000
ASUS44 KLIX 250414
RWRLIX
NEW ORLEANS REGIONAL WEATHER ROUNDUP
NATIONAL WEATHER SERVICE NEW ORLEANS LA
1100 PM CDT MON JUL 24 2017

NOTE: "FAIR" INDICATES FEW OR NO CLOUDS BELOW 12,000 FEET WITH NO
      SIGNIFICANT WEATHER AND/OR OBSTRUCTIONS TO VISIBILITY.
      SKY/WX - SKY CONDITION AND SIGNIFICANT WEATHER.
      TMP - AIR TEMPERATURE.     DP    - DEWPOINT TEMPERATURE.
      RH  - RELATIVE HUMIDITY.   PRES  - PRESSURE.
      HI  - HEAT INDEX.          WCI   - WIND CHILL INDEX.

*  THESE STATIONS ARE NOT NWS OR FAA STATIONS AND ARE NOT UNDER
   NWS QUALITY CONTROL.

LAZ038-040-048-061>063-065>067-069-250500-
SOUTHEAST LOUISIANA

CITY           SKY/WX    TMP DP  RH WIND       PRES   REMARKS
N.O. INTL ARPT CLOUDY    79  74  84 CALM      30.07R
N.O. LAKEFRONT PTCLDY    80  74  81 SE3       30.08R
N.O. DOWNTOWN*   N/A     83  73  72 S3          N/A
RESERVE*         N/A     78  75  88 CALM      30.06R
SLIDELL        CLEAR     76  74  93 CALM      30.06R
BATON ROUGE    CLOUDY    80  75  84 SE3       30.05R
BOOTHVILLE     NOT AVBL
BELLE CHASSE   MOCLDY    79  76  90 CALM      30.07R
BOGALUSA*        N/A     76  73  89 CALM      30.08R
GALLIANO*      PTCLDY    78  74  88 CALM      30.07R
NEW ROADS*     CLOUDY    79  76  91 S5        30.05R
GONZALES*        N/A     75  74  97 CALM      30.05R
HAMMOND*       CLEAR     77  72  83 S3        30.07R
HOUMA*         NOT AVBL
PORT FOURCHON* PTCLDY    84  77  79 SW6       30.07R

$$

MSZ070-080>082-250500-
SOUTHERN MISSISSIPPI

CITY           SKY/WX    TMP DP  RH WIND       PRES   REMARKS
MCCOMB         CLOUDY    76  74  93 S6        30.06R
GULFPORT       CLEAR     75  74  96 CALM      30.06R
BILOXI         CLEAR     76  74  94 CALM      30.06R
PASCAGOULA     CLEAR     74  71  91 CALM      30.07R

$$

COASTAL OBSERVATIONS
LAKE AND NEARSHORE STATIONS

STATION/POSITION TIME  TEMP    WIND        PRES    WAVE
                       AIR SEA DIR/SP/G            HT/PER
                 (UTC) (F)     (DEG/KT/KT) (MB)    (FT/S)
PASCAGOULA       0348   76     340/  5/  6 1017.7
WAVELAND YACHT   0348   77 84  270/  2/  3 1018.1
GRAND ISLE       0348   84 86  240/  4/  5 1018.4
SOUTHWEST PASS   0348   85     260/  9/ 11   N/A
NEW CANAL        0348   80 85  140/  1/  2 1018.1
SHELL BEACH      0348   82 87  320/  4/  4 1018.4

OFFSHORE STATIONS

STATION/POSITION TIME  TEMP    WIND        PRES    WAVE
                       AIR SEA DIR/SP/G            HT/PER
                 (UTC) (F)     (DEG/KT/KT) (MB)    (FT/S)
64 S DAUPHIN ISL 0350   83 85  240/  4/  6 1018.5    2/ 4

$$





USA.gov is the U.S. government's official web portal to all federal, state and local government web resources and services.